Date String (YYYY-MM-DD hh:mm:ss) UTC,Instrument flags,Ambient pressure (hPa),Sample flow (lpm),Bypass flow (lpm),Sample temperature (°C),Ambient temperature (°C),ASC tube jacket temperature (°C),LED temperature (°C),Box temperature (°C),Sample RH (%),Span deviation,Mass concentration (μg/m³),Mass concentration (μg/m³),Mass concentration (μg/m³)
DateTimeUTC,F1_M11,P_M11,Q1_M11,Q2_M11,T1_M11,T2_M11,T3_M11,T4_M11,T5_M11,U1_M11,ZSPAN_M11,X0_M11,X2_M11,X1_M11
2022-03-07 09:00:00,,0830.1,4.99,0.00,22.3,22.3,00.0,31.2,24.1,07.4,0000.0,0005.69,0003.75,0003.56
2022-03-07 09:01:00,,0830.1,4.98,0.00,22.2,22.1,00.0,31.2,24.0,07.4,0000.0,0004.88,0003.72,0003.54
2022-03-07 09:02:00,,0830.1,5.00,0.00,22.2,21.9,00.0,31.2,23.9,07.5,0000.0,0004.83,0003.70,0003.54
2022-03-07 09:03:00,,0830.2,5.00,0.00,22.2,21.7,00.0,31.2,23.8,07.5,0000.0,0004.82,0003.70,0003.54
2022-03-07 09:04:00,,0830.2,5.00,0.00,22.1,21.5,00.0,31.2,23.7,07.5,0000.0,0004.75,0003.70,0003.54
2022-03-07 09:05:00,,0830.1,5.00,0.00,22.0,21.4,00.0,31.2,23.7,07.5,0000.0,0004.97,0003.71,0003.54
2022-03-07 09:06:00,,0830.0,5.00,0.00,22.0,21.3,00.0,31.1,23.6,07.5,0000.0,0005.32,0003.74,0003.54
2022-03-07 09:07:00,,0830.0,5.00,0.00,22.0,21.2,00.0,31.1,23.6,07.6,0000.0,0005.46,0003.77,0003.54
2022-03-07 09:08:00,,0830.0,4.99,0.00,22.0,21.4,00.0,31.1,23.6,07.6,0000.0,0005.47,0003.76,0003.52
2022-03-07 09:09:00,,0830.1,4.99,0.00,22.1,22.1,00.0,31.2,23.9,07.5,0000.0,0005.42,0003.75,0003.52
2022-03-07 09:10:00,,0830.0,5.01,0.00,22.2,22.9,00.0,31.2,24.1,07.5,0000.0,0005.37,0003.75,0003.53
2022-03-07 09:11:00,,0830.0,5.01,0.00,22.4,23.2,00.0,31.2,24.3,07.4,0000.0,0005.16,0003.70,0003.52
2022-03-07 09:12:00,,0830.0,5.00,0.00,22.4,22.9,00.0,31.2,24.3,07.4,0000.0,0005.32,0003.70,0003.52
2022-03-07 09:13:00,,0829.9,4.99,0.00,22.4,22.6,00.0,31.3,24.2,07.4,0000.0,0005.31,0003.70,0003.52
2022-03-07 09:14:00,,0829.9,4.98,0.00,22.4,22.3,00.0,31.3,24.1,07.4,0000.0,0005.30,0003.70,0003.52
2022-03-07 09:15:00,,0829.9,5.00,0.00,22.3,22.1,00.0,31.3,24.0,07.4,0000.0,0005.26,0003.69,0003.53
2022-03-07 09:16:00,,0829.8,5.01,0.00,22.3,21.9,00.0,31.3,23.9,07.4,0000.0,0005.21,0003.70,0003.54
2022-03-07 09:17:00,,0829.8,5.01,0.00,22.2,21.7,00.0,31.2,23.9,07.5,0000.0,0005.01,0003.70,0003.55
2022-03-07 09:18:00,,0829.8,5.00,0.00,22.2,21.6,00.0,31.2,23.8,07.5,0000.0,0005.02,0003.70,0003.56
2022-03-07 09:19:00,,0829.8,5.00,0.00,22.1,21.4,00.0,31.2,23.7,07.5,0000.0,0005.06,0003.71,0003.58
2022-03-07 09:20:00,,0829.8,5.00,0.00,22.0,21.3,00.0,31.2,23.6,07.6,0000.0,0005.36,0003.75,0003.60
2022-03-07 09:21:00,,0829.8,5.01,0.00,22.0,21.2,00.0,31.2,23.6,07.6,0000.0,0005.52,0003.78,0003.61
2022-03-07 09:22:00,,0829.8,5.00,0.00,22.0,21.2,00.0,31.1,23.5,07.6,0000.0,0005.65,0003.82,0003.62
2022-03-07 09:23:00,,0829.8,5.00,0.00,22.0,21.8,00.0,31.2,23.7,07.6,0000.0,0005.54,0003.85,0003.63
2022-03-07 09:24:00,,0829.8,5.00,0.00,22.2,22.5,00.0,31.2,24.0,07.5,0000.0,0005.69,0003.87,0003.63
2022-03-07 09:25:00,,0829.8,5.01,0.00,22.3,23.1,00.0,31.2,24.2,07.4,0000.0,0005.72,0003.88,0003.63
2022-03-07 09:26:00,,0829.8,5.00,0.00,22.4,23.1,00.0,31.3,24.3,07.4,0000.0,0005.66,0003.87,0003.64
2022-03-07 09:27:00,,0829.7,4.99,0.00,22.4,22.7,00.0,31.3,24.2,07.4,0000.0,0005.61,0003.88,0003.63
2022-03-07 09:28:00,,0829.7,4.99,0.00,22.4,22.4,00.0,31.3,24.1,07.4,0000.0,0005.67,0003.90,0003.62
2022-03-07 09:29:00,,0829.7,5.01,0.00,22.3,22.2,00.0,31.3,24.0,07.4,0000.0,0005.66,0003.88,0003.61
2022-03-07 09:30:00,,0829.7,5.00,0.00,22.3,22.0,00.0,31.3,23.9,07.4,0000.0,0005.67,0003.88,0003.61
2022-03-07 09:31:00,,0829.6,5.00,0.00,22.2,21.8,00.0,31.3,23.9,07.4,0000.0,0005.49,0003.85,0003.60
2022-03-07 09:32:00,,0829.7,5.00,0.00,22.2,21.6,00.0,31.2,23.8,07.5,0000.0,0005.37,0003.84,0003.59
2022-03-07 09:33:00,,0829.7,4.99,0.00,22.1,21.5,00.0,31.2,23.7,07.5,0000.0,0005.33,0003.82,0003.58
2022-03-07 09:34:00,,0829.6,4.99,0.00,22.1,21.3,00.0,31.2,23.7,07.5,0000.0,0005.31,0003.81,0003.58
2022-03-07 09:35:00,,0829.6,5.00,0.00,22.0,21.2,00.0,31.2,23.6,07.5,0000.0,0005.28,0003.80,0003.58
2022-03-07 09:36:00,,0829.6,5.00,0.00,22.0,21.1,00.0,31.2,23.5,07.5,0000.0,0005.27,0003.78,0003.56
2022-03-07 09:37:00,,0829.6,5.00,0.00,22.0,21.5,00.0,31.2,23.6,07.5,0000.0,0005.36,0003.79,0003.56
2022-03-07 09:38:00,,0829.6,5.00,0.00,22.1,22.2,00.0,31.2,23.9,07.5,0000.0,0005.32,0003.78,0003.55
2022-03-07 09:39:00,,0829.6,5.01,0.00,22.2,22.9,00.0,31.2,24.2,07.4,0000.0,0005.20,0003.74,0003.54
2022-03-07 09:40:00,,0829.5,5.01,0.00,22.4,23.1,00.0,31.2,24.3,07.4,0000.0,0005.23,0003.75,0003.54
2022-03-07 09:41:00,,0829.5,5.00,0.00,22.4,22.8,00.0,31.3,24.3,07.4,0000.0,0005.26,0003.77,0003.55
2022-03-07 09:42:00,,0829.5,4.99,0.00,22.4,22.5,00.0,31.3,24.1,07.4,0000.0,0005.35,0003.79,0003.55
2022-03-07 09:43:00,,0829.5,5.01,0.00,22.3,22.2,00.0,31.2,24.0,07.4,0000.0,0005.26,0003.77,0003.55
2022-03-07 09:44:00,,0829.5,5.00,0.00,22.2,22.0,00.0,31.2,23.9,07.4,0000.0,0005.34,0003.78,0003.55
2022-03-07 09:45:00,,0829.5,5.00,0.00,22.2,21.7,00.0,31.2,23.8,07.4,0000.0,0005.34,0003.77,0003.54
2022-03-07 09:46:00,,0829.5,5.00,0.00,22.1,21.5,00.0,31.2,23.7,07.4,0000.0,0005.28,0003.76,0003.53
2022-03-07 09:47:00,,0829.5,5.00,0.00,22.1,21.4,00.0,31.2,23.6,07.5,0000.0,0005.24,0003.76,0003.54
2022-03-07 09:48:00,,0829.5,5.00,0.00,22.0,21.2,00.0,31.2,23.5,07.5,0000.0,0005.22,0003.76,0003.54
2022-03-07 09:49:00,,0829.5,5.00,0.00,21.9,21.1,00.0,31.1,23.5,07.6,0000.0,0005.21,0003.75,0003.54
2022-03-07 09:50:00,,0829.5,5.00,0.00,21.9,21.3,00.0,31.1,23.5,07.6,0000.0,0005.24,0003.77,0003.55
2022-03-07 09:51:00,,0829.5,5.01,0.00,22.0,21.9,00.0,31.2,23.7,07.5,0000.0,0005.21,0003.78,0003.56
2022-03-07 09:52:00,,0829.5,5.00,0.00,22.1,22.6,00.0,31.2,24.0,07.5,0000.0,0005.43,0003.77,0003.56
2022-03-07 09:53:00,,0829.5,5.01,0.00,22.3,23.1,00.0,31.2,24.2,07.4,0000.0,0005.88,0003.78,0003.57
2022-03-07 09:54:00,,0829.5,4.98,0.00,22.3,22.8,00.0,31.2,24.2,07.4,0000.0,0005.94,0003.80,0003.58
2022-03-07 09:55:00,,0829.5,5.00,0.00,22.3,22.5,00.0,31.2,24.1,07.4,0000.0,0005.75,0003.78,0003.59
2022-03-07 09:56:00,,0829.5,5.01,0.00,22.3,22.2,00.0,31.2,24.0,07.4,0000.0,0005.73,0003.80,0003.60
2022-03-07 09:57:00,,0829.5,4.98,0.00,22.2,21.9,00.0,31.2,23.8,07.4,0000.0,0005.69,0003.81,0003.63
2022-03-07 09:58:00,,0829.5,5.00,0.00,22.1,21.6,00.0,31.2,23.7,07.4,0000.0,0005.71,0003.83,0003.65
2022-03-07 09:59:00,,0829.5,5.01,0.00,22.1,21.4,00.0,31.2,23.6,07.5,0000.0,0005.79,0003.87,0003.68
